www.pogodaiklimat.ru

Погода и климат >> Архив погоды >> Дания >> Kegnaes


ПОГОДА в Kegnaes

  • Прогноз погоды в Kegnaes
  • Монитор погоды в Kegnaes
  • Климат города

АРХИВ ПОГОДЫ в Kegnaes

Время (UTC), дата Ветер
(напр.,м/с)
 
Видим.   Явления Облачность Т
(С)
Тd
(С)
f
(%)
Тe
(С)
Тes
(С)
Комфортность P
(гПа)
Po
(гПа)
Тmin
(С)
Tmax
(С)
R
(мм)
R24
(мм)
S
(см)
07 19.06 З 3 7000 м дымка ясно +17.5 +16.2 92 +18 +24 1022.8 1020.5
08 19.06 ЮЗ 2 10 км ясно +18.7 +16.3 86 +20 +30 1022.6 1020.3
09 19.06 ЮЗ 3 15 км ясно +20.6 +16.5 77 +24 +36 комфорт 1022.2 1020.0
10 19.06 Ю 2 15 км ясно +21.2 +17.2 78 +25 +40 комфорт 1022.0 1019.8
11 19.06 Ю 4 17 км ясно +20.4 +16.6 79 +24 +36 комфорт 1021.6 1019.4
12 19.06 Ю 5 18 км {дымка} ясно +20.2 +16.8 81 +23 +32 комфорт 1021.1 1018.9
13 19.06 ЮВ 5 22 км ясно +21.3 +17.0 76 +25 +33 комфорт 1020.3 1018.1
14 19.06 ЮВ 5 24 км ясно +20.5 +17.0 80 +24 +31 комфорт 1019.5 1017.3
15 19.06 Ю 6 30 км ясно +20.1 +16.7 81 +23 +27 комфорт 1018.9 1016.7
16 19.06 Ю 5 27 км ясно +19.7 +17.1 85 +22 +25 комфорт 1018.3 1016.1
17 19.06 Ю 4 22 км ясно +19.4 +17.2 87 +22 +24 комфорт 1018.1 1015.8
18 19.06 Ю 5 25 км ясно +19.2 +16.6 85 +21 +21 комфорт 1017.7 1015.5 +16.3 +22.7
19 19.06 Ю 3 19 км ясно +19.0 +17.2 89 +21 +21 комфорт 1017.3 1015.1
20 19.06 З 3 20 км ясно +20.1 +16.7 81 +23 +23 комфорт 1017.3 1015.1
21 19.06 СЗ 3 17 км ясно +19.9 +16.6 81 +23 +23 комфорт 1017.1 1014.9
22 19.06 СЗ 3 19 км ясно +18.6 +16.2 86 +20 +20 1016.9 1014.7
23 19.06 СЗ 4 20 км ясно +17.7 +15.3 86 +18 +18 1016.8 1014.6
00 20.06 З 4 20 км ясно +17.2 +15.5 90 +17 +17 1016.3 1014.1
01 20.06 З 3 15 км ясно +16.9 +15.1 89 +17 +17 1016.1 1013.9
02 20.06 СЗ 4 9000 м дымка ясно +15.9 +14.6 92 +15 +15 1016.2 1013.9
03 20.06 СЗ 3 900 м туман {дымка} ясно +15.4 +14.3 93 +15 +15 1016.3 1014.1
04 20.06 СЗ 4 1100 м в посл. час туман {дымка} 9/9 150 м
[]
+15.4 +14.3 93 +14 +14 1016.5 1014.2
05 20.06 СЗ 5 1500 м дымка 4/4 180 м
[]
+15.7 +13.5 87 +15 +15 1016.9 1014.6
06 20.06 СЗ 5 2000 м дымка {туман} ясно +15.7 +12.0 79 +15 +17 1017.4 1015.1 +15.2 +20.4
07 20.06 С 5 1900 м дымка ясно +16.1 +11.3 73 +15 +19 1017.9 1015.6
08 20.06 С 5 2500 м дымка ясно +17.0 +9.0 59 +16 +21 1018.2 1016.0
09 20.06 СЗ 5 2100 м дымка ясно +18.0 +10.2 60 +18 +24 1018.5 1016.3
10 20.06 СЗ 6 2000 м дымка н/о +18.4 +10.4 60 +18 +18 1018.7 1016.5
11 20.06 СЗ 6 2200 м дымка ясно +19.5 +10.7 57 +20 +27 1018.9 1016.6
12 20.06 СЗ 5 1600 м дымка ясно +19.7 +9.5 52 +21 +29 комфорт 1018.6 1016.4
13 20.06 СЗ 6 1600 м дымка ясно +19.9 +9.6 51 +21 +27 комфорт 1018.5 1016.2
14 20.06 СЗ 6 1500 м дымка ясно +19.5 +9.0 51 +20 +24 1018.4 1016.2
15 20.06 СЗ 6
{11}
1500 м дымка ясно +18.9 +9.0 53 +19 +22 1018.4 1016.2
16 20.06 СЗ 7 1300 м дымка ясно +18.0 +8.9 55 +17 +19 1018.5 1016.2
17 20.06 СЗ 6 1300 м дымка ясно +17.3 +8.7 57 +17 +18 1018.7 1016.4
18 20.06 СЗ 5
{11}
1200 м дымка ясно +16.3 +8.2 59 +15 +16 1019.0 1016.7 +15.6 +20.3
19 20.06 СЗ 5 1000 м в посл. час туман {дымка} ясно +15.0 +7.5 61 +14 +14 1019.2 1016.9
20 20.06 СЗ 4 700 м туман {дымка} ясно +13.3 +8.2 71 +12 +12 1019.6 1017.4
21 20.06 СЗ 4 700 м туман {дымка} ясно +12.0 +8.0 76 +10 +10 1019.8 1017.5
22 20.06 СЗ 4 35 км в посл. час туман {дымка} ясно +11.2 +8.0 81 +9 +9 1019.8 1017.5
23 20.06 СЗ 4 27 км ясно +10.6 +8.2 85 +8 +8 1019.5 1017.2
00 21.06 З 4 25 км {туман, дымка} ясно +10.4 +8.2 86 +8 +8 1019.5 1017.2
01 21.06 СЗ 4 25 км ясно +10.1 +8.2 88 +8 +8 1019.5 1017.2
02 21.06 СЗ 4 28 км ясно +10.1 +8.1 87 +7 +7 1019.6 1017.3
03 21.06 СЗ 4 25 км {дымка} ясно +9.9 +8.1 89 +7 +7 1019.2 1017.0
04 21.06 З 3 30 км 5/5 960 м
[]
+10.6 +8.4 86 +8 +9 1019.3 1017.0
05 21.06 З 3 26 км ясно +11.9 +8.9 82 +10 +12 1019.4 1017.1
06 21.06 СЗ 4 18 км ясно +13.5 +8.3 71 +12 +14 1019.3 1017.1 +9.8 +16.3
07 21.06 СЗ 5 18 км 4/4 960 м
[]
+14.3 +7.7 64 +13 +15 1019.3 1017.0
08 21.06 СЗ 4 19 км 4/4 930 м
[]
+15.2 +8.3 63 +14 +19 1019.4 1017.2
09 21.06 З 4 16 км 4/4 1020 м
[]
+15.4 +8.4 63 +14 +19 1019.5 1017.2
10 21.06 З 5 21 км ясно +18.0 +9.8 59 +18 +26 1019.3 1017.0
11 21.06 З 6 18 км ясно +17.9 +9.3 57 +17 +23 1018.9 1016.7
12 21.06 З 5 20 км ясно +19.1 +9.5 54 +20 +28 1018.5 1016.3
13 21.06 З 6 20 км ясно +18.9 +9.9 56 +19 +25 1018.0 1015.8
14 21.06 З 5 23 км ясно +18.9 +9.8 55 +19 +25 1017.7 1015.5
15 21.06 З 4 18 км ясно +18.7 +9.6 55 +19 +25 1017.3 1015.1
16 21.06 З 3 18 км ясно +17.3 +9.7 61 +17 +23 1016.9 1014.7
17 21.06 З 4 15 км ясно +16.9 +9.5 62 +17 +19 1017.0 1014.8
18 21.06 З 4 15 км ясно +15.6 +10.2 70 +15 +16 1016.7 1014.5 +13.5 +20.9
19 21.06 З 4 17 км ясно +14.8 +9.6 71 +14 +14 1016.8 1014.6
20 21.06 СЗ 2 15 км ясно +13.8 +9.6 76 +13 +13 1016.3 1014.0
21 21.06 З 2 14 км ясно +13.7 +9.7 77 +13 +13 1015.9 1013.7
22 21.06 З 2 14 км слаб. ливневой дождь ясно +13.4 +10.1 80 +13 +13 1016.0 1013.7
23 21.06 СЗ 2 15 км {ливн. осадки} ясно +13.4 +10.0 80 +13 +13 1015.7 1013.5
00 22.06 С 2 13 км {ливн. осадки, дождь} ясно +13.1 +10.2 83 +13 +13 1015.1 1012.9
01 22.06 СЗ 1 14 км ясно +12.6 +9.5 81 +13 +13 1014.9 1012.7
02 22.06 З 1 14 км ясно +12.7 +9.6 81 +14 +14 1014.7 1012.4
03 22.06 Ю 2 29 км ясно +12.9 +10.1 83 +12 +12 1014.2 1011.9
04 22.06 Ю 4 22 км ясно +14.0 +10.7 80 +13 +13 1013.4 1011.1
05 22.06 ЮВ 4 20 км ясно +14.5 +11.2 81 +13 +14 1012.5 1010.3
06 22.06 Ю 5 17 км слаб. морось {ливн. осадки} ясно +15.0 +11.7 81 +14 +16 1013.1 1010.9 +12.4 +15.7 0.0
07 22.06 Ю 5 13 км слаб. дождь {морось} 4/4 150 м
[]
+14.5 +11.8 84 +13 +15 1012.2 1010.0 1
08 22.06 ЮЗ 3 3000 м дождь 9/9 150 м
[]
+12.4 +10.6 89 +11 +12 1012.8 1010.5 4
09 22.06 ЮЗ 6 3700 м дождь {морось} 9/9 180 м
[]
+13.2 +12.5 96 +11 +11 1012.0 1009.8 10
10 22.06 Ю 17 6000 м слаб. дождь 4/4 30 м
[]
+14.5 +14.1 97 +11 +11 1005.9 1003.6 5
11 22.06 Ю 8 17 км {дождь} ясно +16.9 +15.6 92 +15 +18 1007.3 1005.1
12 22.06 В 4 21 км {дождь, морось} ясно +17.2 +15.1 87 +17 +27 1008.2 1006.0 5
13 22.06 В 5 19 км ясно +17.3 +15.5 89 +17 +25 1007.8 1005.6
14 22.06 В 5 25 км ясно +16.9 +15.3 90 +16 +22 1007.5 1005.2
15 22.06 В 7 20 км ясно +16.8 +15.1 90 +16 +18 1006.5 1004.2
16 22.06 В 5 18 км слаб. морось {дождь} 1/1 1020 м
[]
+17.0 +15.5 91 +16 +19 1006.3 1004.1
17 22.06 ЮВ 5 17 км в посл. час морось {ливн. осадки} 4/4 840 м
[]
+17.1 +15.6 91 +16 +18 1006.1 1003.9
18 22.06 ЮВ 7 12 км {ливн. осадки, дождь} ясно +17.1 +16.1 94 +16 +16 1005.1 1002.9 +12.4 +18.8
19 22.06 В 2 7000 м дымка ясно +17.1 +16.2 94 +18 +18 1004.1 1001.9
20 22.06 ЮЗ 1 9000 м дымка ясно +17.5 +16.6 94 +19 +19 1003.5 1001.3
21 22.06 ЮЗ 3 6000 м дымка ясно +17.7 +16.9 95 +18 +18 1003.3 1001.2
22 22.06 З 6 5000 м дымка 1/1 330 м
[]
+17.6 +16.5 93 +17 +17 1003.7 1001.5
23 22.06 З 6 4000 м дымка 5/5 210 м
[]
+17.1 +16.1 94 +16 +16 1004.1 1001.9
00 23.06 З 7 2900 м дымка 6/6 180 м
[]
+16.8 +15.9 94 +16 +16 1003.7 1001.5
01 23.06 З 6 2600 м дымка 10/10 90 м
[]
+16.2 +15.5 96 +15 +15 1003.6 1001.4
02 23.06 З 6 3500 м дымка 10/10 120 м
[]
+16.0 +15.4 96 +15 +15 1003.5 1001.3
03 23.06 З 6 2600 м дымка 10/10 90 м
[]
+16.0 +15.5 97 +15 +15 1003.9 1001.7
04 23.06 З 5 5000 м дымка 10/10 150 м
[]
+16.2 +15.4 95 +15 +15 1004.4 1002.2
05 23.06 З 7 2600 м дымка 10/10 90 м
[]
+16.2 +15.4 95 +15 +15 1005.0 1002.8
06 23.06 З 6 5000 м дымка 10/10 90 м
[]
+16.0 +15.5 97 +15 +15 1005.6 1003.4 +15.8 +17.9
07 23.06 З 5 10 км 10/10 90 м
[]
+16.5 +15.8 96 +16 +16 1006.2 1004.0
08 23.06 З 5 5000 м дымка 10/10 60 м
[]
+16.6 +15.9 96 +16 +16 1006.8 1004.6
09 23.06 З 7 4700 м дымка 10/10 60 м
[]
+16.5 +15.8 96 +15 +15 1007.7 1005.5
10 23.06 З 8 6000 м дымка 9/9 150 м
[]
+17.0 +15.7 92 +16 +16 1008.1 1005.9
11 23.06 З 7 5000 м дымка 10/10 90 м
[]
+15.9 +14.9 94 +14 +14 1009.2 1007.0
12 23.06 З 8
{14}
5000 м дымка 10/10 120 м
[]
+15.7 +14.7 94 +14 +14 1009.6 1007.4
13 23.06 З 7 8000 м дымка ясно +18.2 +14.6 80 +18 +21 1009.8 1007.6
14 23.06 З 8 7000 м дымка ясно +19.0 +14.2 74 +19 +22 1010.3 1008.1
15 23.06 З 7 4600 м дымка ясно +17.7 +13.7 77 +17 +20 1010.6 1008.4
16 23.06 З 9 5000 м дымка ясно +16.1 +12.2 78 +14 +15 1010.8 1008.6
17 23.06 З 9 7000 м слаб. морось {дождь} ясно +15.8 +12.6 81 +14 +14 1011.1 1008.9
18 23.06 З 7 6000 м слаб. ливневой дождь 1/1 630 м
[]
+15.1 +13.0 87 +13 +13 1011.1 1008.8 +15.1 +19.1 0.0
19 23.06 З 7 11 км морось {ливн. осадки, дождь} ясно +14.6 +13.4 93 +13 +13 1011.1 1008.8 0.3
20 23.06 З 7 8000 м в посл. час морось ясно +14.6 +13.2 91 +13 +13 1011.1 1008.9
21 23.06 З 7 8000 м дымка {ливн. осадки, дождь} 6/6 360 м
[]
+14.7 +13.4 92 +13 +13 1010.9 1008.7 0.3
22 23.06 З 7 16 км 9/9 400 м
[]
+14.8 +13.0 89 +13 +13 1010.8 1008.5
23 23.06 З 8 15 км 5/5 360 м
[]
+14.8 +13.3 91 +13 +13 1010.3 1008.1
00 24.06 З 9 11 км {ливн. осадки, дождь} 4/4 270 м
[]
+14.9 +13.7 93 +13 +13 1009.7 1007.5
01 24.06 ЮЗ 10 8000 м дымка 5/5 150 м
[]
+15.0 +14.1 94 +13 +13 1009.4 1007.1
02 24.06 З 7 3900 м слаб. ливневой дождь 9/9 90 м
[]
+14.9 +14.4 97 +13 +13 1009.0 1006.7 0.2
03 24.06 З 7 6000 м дымка {ливн. осадки, дождь} 6/6 180 м
[]
+15.0 +14.4 96 +13 +13 1008.5 1006.3 0.3
04 24.06 З 6 9000 м дымка 6/6 180 м
[]
+15.1 +14.4 96 +13 +13 1008.3 1006.1
05 24.06 З 6 10 км 4/4 210 м
[]
+15.3 +14.3 94 +14 +14 1008.0 1005.7
06 24.06 ЮЗ 8 14 км {ливн. осадки, дождь} ясно +15.7 +14.5 93 +14 +15 1007.6 1005.4 +14.4 +15.8
07 24.06 ЮЗ 8 11 км ясно +15.7 +14.8 94 +14 +15 1007.4 1005.2
08 24.06 ЮЗ 8 13 км 4/4 400 м
[]
+16.1 +14.8 92 +14 +15 1007.1 1004.9
09 24.06 ЮЗ 8 7000 м морось {дождь} 4/4 150 м
[]
+16.3 +14.9 91 +15 +16 1006.8 1004.6
10 24.06 З 7 8000 м в посл. час морось {ливн. осадки} 4/4 210 м
[]
+16.5 +15.1 91 +15 +17 1006.9 1004.7
11 24.06 ЮЗ 9 11 км 4/4 240 м
[]
+16.3 +14.7 90 +15 +16 1006.8 1004.6
12 24.06 З 7 8000 м слаб. ливневой дождь 6/6 120 м
[]
+16.2 +14.9 92 +15 +16 1006.7 1004.4 0.0
13 24.06 З 8 3000 м ливневой дождь 4/4 210 м
[]
+15.7 +14.5 93 +14 +16 1007.0 1004.7 0.8
14 24.06 З 7 18 км в посл. час дождь {ливн. осадки} 4/4 120 м
[]
+15.2 +14.1 93 +13 +15 1007.7 1005.4 2
15 24.06 З 8 21 км {ливн. осадки} ясно +16.7 +13.4 81 +15 +17 1007.7 1005.5 3
16 24.06 З 8 17 км ясно +16.0 +12.1 78 +14 +15 1008.1 1005.9
17 24.06 З 8 12 км 5/5 800 м
[]
+14.7 +10.0 73 +13 +13 1008.8 1006.5
18 24.06 З 7 8000 м дымка {ливн. осадки} 4/4 750 м
[]
+14.2 +10.3 77 +12 +12 1009.0 1006.7 +14.2 +17.1
19 24.06 З 6 7000 м дымка 4/4 870 м
[]
+14.2 +10.7 79 +12 +12 1008.7 1006.4
20 24.06 З 9 17 км ясно +14.0 +10.3 78 +11 +11 1008.8 1006.6
21 24.06 З 6
{12}
12 км {дымка} ясно +13.8 +10.8 82 +12 +12 1008.9 1006.7
22 24.06 З 6 14 км ясно +13.8 +11.2 84 +12 +12 1008.6 1006.4
23 24.06 ЮЗ 6 н/о ясно +13.9 +11.5 85 +12 +12 1008.1 1005.9
00 25.06 ЮЗ 7 7000 м дымка ясно +13.4 +11.8 90 +11 +11 1007.5 1005.3
01 25.06 ЮЗ 7 6000 м дымка ясно +13.4 +12.0 91 +11 +11 1006.6 1004.3
02 25.06 ЮЗ 7 4900 м дымка ясно +13.5 +12.5 94 +11 +11 1006.1 1003.9
03 25.06 ЮЗ 7 4900 м дымка ясно +13.8 +13.0 95 +11 +11 1005.3 1003.1
04 25.06 Ю 6 3800 м дымка ясно +14.1 +13.4 96 +12 +12 1004.9 1002.7
05 25.06 ЮЗ 7 6000 м слаб. ливневой дождь ясно +14.8 +14.0 95 +13 +13 1004.6 1002.4 0.1
06 25.06 ЮЗ 8 8000 м в посл. час морось {ливн. осадки, дождь} ясно +15.4 +13.8 90 +13 +14 1004.4 1002.2 +13.2 +15.4 0.1
07 25.06 З 7 17 км ясно +15.9 +13.2 84 +14 +16 1004.1 1001.9
08 25.06 З 5 12 км ясно +16.1 +13.4 84 +15 +20 1004.5 1002.3
09 25.06 З 7 15 км ясно +16.2 +10.1 67 +15 +18 1005.0 1002.8
10 25.06 З 8 14 км ясно +15.2 +9.9 71 +13 +16 1005.5 1003.3
11 25.06 З 7 17 км ясно +17.8 +12.0 69 +17 +21 1005.7 1003.5
12 25.06 З 9
{14}
7000 м дымка ясно +17.5 +10.7 64 +16 +18 1005.8 1003.6
13 25.06 З 8 7000 м дымка ясно +17.0 +9.7 62 +16 +18 1006.1 1003.9
14 25.06 З 9 5000 м дымка ясно +17.3 +10.1 63 +16 +17 1006.5 1004.2
15 25.06 З 9-15
{15}
6000 м дымка ясно +17.1 +8.8 58 +16 +16 1006.5 1004.3
16 25.06 З 10 3900 м дымка ясно +16.2 +9.0 62 +14 +15 1006.5 1004.3
17 25.06 З 8 5000 м дымка ясно +15.3 +9.1 66 +13 +14 1006.8 1004.6
18 25.06 З 9 5000 м дымка ясно +14.8 +8.8 67 +13 +13 1006.9 1004.7 +14.3 +18.2
19 25.06 З 8 8000 м дымка ясно +14.0 +8.7 70 +12 +12 1006.7 1004.5
20 25.06 З 7 7000 м дымка ясно +13.7 +9.5 76 +11 +11 1006.7 1004.5
21 25.06 З 7 1900 м дымка ясно +12.9 +9.5 80 +10 +10 1006.8 1004.6
22 25.06 З 7 24 км ясно +12.7 +9.4 80 +10 +10 1006.9 1004.7
23 25.06 З 7 20 км ясно +12.5 +9.5 82 +10 +10 1006.9 1004.7
00 26.06 З 6
{14}
14 км {дымка} ясно +11.9 +9.3 84 +9 +9 1006.5 1004.2
01 26.06 З 7 13 км ясно +11.9 +9.5 85 +9 +9 1006.6 1004.4
02 26.06 З 8 15 км ясно +11.8 +9.5 86 +8 +8 1006.6 1004.3
03 26.06 З 8 23 км ясно +11.9 +9.7 86 +9 +9 1006.5 1004.2
04 26.06 З 7 24 км ясно +12.2 +9.8 85 +9 +9 1006.7 1004.4
05 26.06 З 6 24 км ясно +13.3 +10.1 81 +11 +12 1006.9 1004.6
06 26.06 З 6 19 км ясно +13.4 +9.0 75 +11 +13 1007.4 1005.1 +11.7 +14.8
07 26.06 З 6 21 км ясно +14.4 +8.5 68 +13 +15 1007.9 1005.7

 

Местоположение метеостанции Kegnaes (Дания): широта 54.85 долгота 9.98 высота над уровнем моря 17 м.

В архиве по умолчанию представлена погода в Kegnaes за последнюю неделю. Архивные данные за месяц целиком и за предыдущие месяцы, начиная с января 2011 года, Вы можете получить, выбрав интересующий диапазон дат из раскрывающегося списка и нажав кнопку "Ввод!".

Внимание! Время в таблицах - всемирное. Для получения местного времени необходимо прибавить поправку, которая в Kegnaes равна 1 ч.

Смотрите также архив погоды в соседних городах и на ближайших метеорологических станциях:

Погода в Olpenitz (Германия) (20 км)
Погода в Gluecksburg (Германия) (31 км)
Погода в Taasinge (Дания) (42 км)
Погода в Leuchtturm Kiel (Германия) (43 км)
Погода в Toroe (Дания) (45 км)
Погода в Schleswig (Германия) (45 км)
Погода в Schleswig Airport (Германия) (52 км)
Погода в Kiel-Holtenau (Германия) (53 км)
Погода в Aarslev (Дания) (59 км)
Погода в Skrydstrup (Дания) (62 км)

Пояснения к столбцам:

Ветер - указаны скорость ветра в м/с - средняя за 10 мин, порывы в срок и между сроками (в фигурных скобках) и направление, откуда дует ветер: С - северный, СВ - северо-восточный, В - восточный, ЮВ - юго-восточный, Ю - южный, ЮЗ - юго-западный, З - западный, СЗ - северо-западный.
Видимость - горизонтальная дальность видимости в метрах или километрах. При видимости от 1 до 10 км при отсутствии осадков обычно наблюдается дымка, при ухудшении видимости до 1 км и менее - туман. В сухую погоду видимость может ухудшаться дымом, пылью или мглою.
Явления - указаны атмосферные явления, наблюдавшиеся в срок или в последний час перед сроком; фигурными скобками обозначены явления, наблюдавшиеся между сроками (за 1-3 часа до срока); квадратными скобками обозначены град или гололедные отложения с указанием их диаметра в мм.
Облачность - указаны через наклонную черту общая и нижняя облачность в баллах и высота нижней границы облаков в метрах; квадратными скобками обозначены формы облаков: Ci - перистые, Cs - перисто-слоистые, Cc - перисто-кучевые, Ac - высококучевые, As - высокослоистые, Sc - слоисто-кучевые, Ns - слоисто-дождевые, Cu - кучевые, Cb - кучево-дождевые. Подробнее классификацию облаков см. в Атласе облаков (PDF).
T - Температура воздуха - температура, измеренная на высоте 2 м над землей.
Td - Температура точки росы - температура, при понижении до которой содержащийся в воздухе водяной пар достигнет насыщения.
f - Относительная влажность воздуха - влажноcть воздуха, измеренная на высоте 2 м над землей.
Te - Эффективная температура - температура, которую ощущает одетый по сезону человек в тени. Характеристика душности погоды. При расчете учитывается влияние влажности воздуха и скорости ветра на теплоощущения человека.
Tes - Эффективная температура на солнце - температура, которую ощущает человек, с поправкой на солнечный нагрев. Характеристика знойности погоды. Зависит от высоты солнца над горизонтом, облачности и скорости ветра. Ночью, в пасмурную погоду, а также при ветре 12 м/с и более поправка равна нулю.
P - Атмосферное давление - приведенное к уровню моря атмосферное давление.
Po - Атмосферное давление - измеренное на уровне метеостанции атмосферное давление.
Tmin - Минимальная температура - минимум температуры воздуха на высоте 2 м над землей.
Tmax - Максимальная температура - максимум температуры воздуха на высоте 2 м над землей.
R - Количество осадков - Количество выпавших осадков за период времени, мм. При наведении курсора мыши на число - период времени, за который выпало указанное количество осадков.
R24 - Количество осадков - Количество выпавших осадков за 24 часа, мм.
S - Снежный покров - Высота снежного покрова, см. При наведении курсора мыши на число - состояние снежного покрова и степень покрытия местности в баллах.